7 * 24
多渠道服务支持
STARLINK-37532(NORAD编号69468)是美国太空探索技术公司(SpaceX)星链星座的低地球轨道通信卫星,隶属于星链第二代组网序列。该卫星由猎鹰9号Block 5火箭搭载发射,主要承担全球卫星互联网覆盖服务任务,运行在近地轨道,轨道周期约94分钟,目前处于正常在轨运行状态。作为SpaceX规模化组网的组成部分,该卫星可为偏远地区、航空航海等场景提供低时延、高速率的互联网接入服务,支撑星链网络覆盖范围与服务容量的持续扩展。
美国
(US)
| 数据来源 | 国际轨道数据 |
| 星历时间: | 2026-09-05T06:50:48+0800 8小时前 查看轨道信息 |
| 半长轴: | 6837.837km |
| 偏心率: | 0.0002219 |
| 轨道倾角: | 53.157° |
| 近地点辐角 | 85.797° |
| 升交点赤经 | 238.486° |
| 平近点角 | 274.329° |
| 近地点: | 458.182km |
| 远地点: | 461.218km |
| 周期: | 93.786分钟 |
| 每日圈数: | 15.354111 |